C/2023 Q1 ( PanSTARRS )

Japanese version
Home page
Updated on February 10, 2025

---------------------------------------------------------------------

* Profile

Discovery Date August 20, 2023
Magnitude 22.0 mag
Discoverer Pan-STARRS 1 telescope (Haleakala)

* Pictures

* Orbital Elements

Epoch 2024 Oct. 17.0 TT = JDT 2460600.5
T 2024 Dec. 1.14154 TT                                  Rudenko
q   2.5757118            (2000.0)            P               Q
z  -0.0020651      Peri.   84.41050     -0.00254366     -0.99724504
 +/-0.0000028      Node     7.13527     +0.50180367     -0.06539767
e   1.0053191      Incl.   36.64344     +0.86497781     +0.03500684
From 459 observations 2023 July 25-2024 Nov. 12, mean residual 1".0.

* Finding Charts

* Magnitudes Graph

        m1 = 8.5 + 5 log d + 12.0 log r

---------------------------------------------------------------------

The orbital elements are published on M.P.E.C. 2024-V192.
The charts are made with StellaNavigator Ver.11 (AstroArts).
The magnitudes graphs are made with Comet for Windows.

---------------------------------------------------------------------

Copyright(C) Seiichi Yoshida (comet@aerith.net). All rights reserved.